"Month","Million Current Dollars Per Week"
1932-01-01,9.05000
1932-02-01,8.21000
1932-03-01,5.77000
1932-04-01,5.04000
1932-05-01,5.64000
1932-06-01,4.37000
1932-07-01,6.26000
1932-08-01,3.18000
1932-09-01,2.35000
1932-10-01,3.40000
1932-11-01,2.45000
1932-12-01,4.30000
1933-01-01,3.42000
1933-02-01,5.00000
1933-03-01,3.50000
1933-04-01,4.87000
1933-05-01,3.66000
1933-06-01,8.14000
1933-07-01,5.06000
1933-08-01,5.78000
1933-09-01,6.80000
1933-10-01,3.91000
1933-11-01,4.06000
1933-12-01,5.12000
1934-01-01,3.09000
1934-02-01,2.46000
1934-03-01,5.27000
1934-04-01,2.62000
1934-05-01,4.66000
1934-06-01,3.45000
1934-07-01,4.09000
1934-08-01,3.49000
1934-09-01,2.47000
1934-10-01,2.58000
1934-11-01,3.11000
1934-12-01,5.05000
1935-01-01,3.03000
1935-02-01,2.00000
1935-03-01,3.88000
1935-04-01,8.76000
1935-05-01,7.55000
1935-06-01,7.63000
1935-07-01,4.86000
1935-08-01,5.39000
1935-09-01,3.05000
1935-10-01,9.37000
1935-11-01,4.95000
1935-12-01,3.51000
1936-01-01,4.94000
1936-02-01,7.75000
1936-03-01,9.79000
1936-04-01,10.8500
1936-05-01,8.47000
1936-06-01,11.2700
1936-07-01,9.99000
1936-08-01,9.00000
1936-09-01,19.7900
1936-10-01,12.6300
1936-11-01,12.4900
1936-12-01,15.5800
1937-01-01,15.0500
1937-02-01,10.6500
1937-03-01,19.9900
1937-04-01,19.7900
1937-05-01,28.9100
1937-06-01,33.9200
1937-07-01,18.0100
1937-08-01,14.9800
1937-09-01,14.9500
1937-10-01,22.1200
1937-11-01,10.5700
1937-12-01,9.75000
1938-01-01,18.2000
1938-02-01,19.3200
1938-03-01,20.6700
1938-04-01,21.6600
1938-05-01,12.9000
1938-06-01,8.64000
1938-07-01,10.9700
1938-08-01,10.5300
1938-09-01,9.22000
1938-10-01,12.0100
1938-11-01,9.79000
1938-12-01,9.55000
1939-01-01,9.82000
1939-02-01,11.8500
1939-03-01,12.1300
1939-04-01,11.6700
1939-05-01,10.7900
1939-06-01,10.4600
1939-07-01,10.3700
1939-08-01,14.6900
1939-09-01,11.0100
1939-10-01,20.6400
1939-11-01,16.9700
1939-12-01,13.7400
1940-01-01,11.0300
1940-02-01,17.3600
1940-03-01,13.3300
1940-04-01,18.4200
1940-05-01,16.1000
1940-06-01,20.1100
1940-07-01,10.9300
1940-08-01,14.4600
1940-09-01,20.2400
1940-10-01,40.0400
1940-11-01,22.2400
1940-12-01,22.3100
1941-01-01,30.3400
1941-02-01,29.7400
1941-03-01,16.7300
1941-04-01,22.6200
1941-05-01,20.8300
1941-06-01,17.5700
1941-07-01,14.5200
1941-08-01,13.5800
1941-09-01,16.6700
1941-10-01,16.6700
1941-11-01,15.3700
1941-12-01,10.2500
1942-01-01,9.21000
1942-02-01,15.0800
1942-03-01,15.5600
1942-04-01,11.5200
1942-05-01,11.8100
1942-06-01,9.36000
1942-07-01,11.4200
1942-08-01,7.56000
1942-09-01,5.72000
1942-10-01,6.30000
1942-11-01,6.87000
1942-12-01,2.37000
1943-01-01,3.33000
1943-02-01,8.32000
1943-03-01,6.65000
1943-04-01,8.27000
1943-05-01,4.67000
1943-06-01,17.8800
1943-07-01,4.42000
1943-08-01,6.57000
1943-09-01,8.55000
1943-10-01,9.22000
1943-11-01,6.79000
1943-12-01,7.50000
1944-01-01,5.70000
1944-02-01,6.66000
1944-03-01,8.01000
1944-04-01,6.13000
1944-05-01,8.87000
1944-06-01,4.41000
1944-07-01,8.30000
1944-08-01,5.32000
1944-09-01,4.37000
1944-10-01,5.14000
1944-11-01,6.21000
1944-12-01,3.58000
1945-01-01,6.88000
1945-02-01,6.42000
1945-03-01,9.91000
1945-04-01,9.11000
1945-05-01,5.61000
1945-06-01,14.4500
1945-07-01,9.00000
1945-08-01,16.1300
1945-09-01,37.4900
1945-10-01,37.7600
1945-11-01,43.0900
1945-12-01,41.0700
1946-01-01,45.0000
1946-02-01,37.7400
1946-03-01,59.5000
1946-04-01,79.5600
1946-05-01,63.2800
1946-06-01,80.2600
1946-07-01,56.7900
1946-08-01,65.6200
1946-09-01,48.2800
1946-10-01,56.7100
1946-11-01,31.5900
1946-12-01,57.8800
1947-01-01,53.0900
1947-02-01,48.8500
1947-03-01,54.9800
1947-04-01,49.1500
1947-05-01,43.8800
1947-06-01,51.0100
1947-07-01,45.9800
1947-08-01,49.0800
1947-09-01,67.0500
1947-10-01,63.3200
1947-11-01,49.0800
1947-12-01,63.0000
1948-01-01,38.0500
1948-02-01,50.7400
1948-03-01,47.5400
1948-04-01,75.6400
1948-05-01,59.6600
1948-06-01,71.4100
1948-07-01,49.7300
1948-08-01,45.4600
1948-09-01,53.8800
1948-10-01,81.7000
1948-11-01,45.7300
1948-12-01,72.1600
1949-01-01,51.0300
1949-02-01,86.1100
1949-03-01,63.4700
1949-04-01,62.2700
1949-05-01,51.7800
1949-06-01,72.4900
1949-07-01,47.2100
1949-08-01,78.4000
1949-09-01,74.4400
1949-10-01,60.7400
1949-11-01,54.5600
1949-12-01,67.1400
1950-01-01,98.6000
1950-02-01,97.7800
1950-03-01,138.840
1950-04-01,101.390
1950-05-01,112.070
1950-06-01,130.290
1950-07-01,113.240
1950-08-01,125.570
1950-09-01,124.560
1950-10-01,112.650
1950-11-01,93.0600
1950-12-01,83.1400
1951-01-01,157.580
1951-02-01,217.720
1951-03-01,140.190
1951-04-01,117.280
1951-05-01,130.070
1951-06-01,104.950
1951-07-01,92.3400
1951-08-01,112.010
1951-09-01,108.940
1951-10-01,151.280
1951-11-01,120.300
1951-12-01,109.340
1952-01-01,126.420
1952-02-01,95.0400
1952-03-01,123.330
1952-04-01,135.320
1952-05-01,143.170
1952-06-01,132.200
1952-07-01,114.370
1952-08-01,119.160
1952-09-01,102.000
1952-10-01,143.530
1952-11-01,155.360
1952-12-01,119.200
1953-01-01,225.050
1953-02-01,144.920
1953-03-01,157.460
1953-04-01,129.620
1953-05-01,148.360
1953-06-01,117.970
1953-07-01,122.190
1953-08-01,128.440
1953-09-01,135.880
1953-10-01,160.010
1953-11-01,95.9400
1953-12-01,179.780
1954-01-01,84.6400
1954-02-01,110.030
1954-03-01,127.540
1954-04-01,168.480
1954-05-01,220.160
1954-06-01,142.050
1954-07-01,150.300
1954-08-01,144.040
1954-09-01,154.500
1954-10-01,126.790
1954-11-01,163.850
1954-12-01,137.270
1955-01-01,191.840
1955-02-01,160.810
1955-03-01,251.520
1955-04-01,192.990
1955-05-01,260.190
1955-06-01,214.680
1955-07-01,225.490
1955-08-01,171.990
1955-09-01,192.290
1955-10-01,233.920
1955-11-01,211.630
1955-12-01,171.370
1956-01-01,207.780
1956-02-01,296.410
1956-03-01,308.950
1956-04-01,299.140
1956-05-01,245.650
1956-06-01,207.960
1956-07-01,270.300
1956-08-01,214.890
1956-09-01,209.900
1956-10-01,253.670
1956-11-01,188.620
1956-12-01,230.380
1957-01-01,142.570
1957-02-01,169.360
1957-03-01,148.880
1957-04-01,176.960
1957-05-01,153.990
1957-06-01,178.750
1957-07-01,149.520
1957-08-01,156.480
1957-09-01,153.260
1957-10-01,151.960
1957-11-01,136.970
1957-12-01,99.1500
1958-01-01,96.5800
1958-02-01,137.550
1958-03-01,150.500
1958-04-01,193.890
1958-05-01,183.560
1958-06-01,147.740
1958-07-01,158.340
1958-08-01,169.540
1958-09-01,97.0800
1958-10-01,117.530
1958-11-01,102.630
1958-12-01,128.610
1959-01-01,128.740
1959-02-01,176.900
1959-03-01,204.000
1959-04-01,160.900
1959-05-01,247.640
1959-06-01,213.320
1959-07-01,213.200
1959-08-01,181.460
1959-09-01,232.360
1959-10-01,148.450
1959-11-01,192.280
1959-12-01,155.640
1960-01-01,156.800
1960-02-01,186.560
1960-03-01,163.320
1960-04-01,214.400
1960-05-01,210.300
1960-06-01,297.960
1960-07-01,257.700
1960-08-01,227.510
1960-09-01,222.080
1960-10-01,199.830
1960-11-01,215.150
1960-12-01,150.700
1961-01-01,184.640
1961-02-01,179.060
1961-03-01,190.160
1961-04-01,203.680
1961-05-01,238.440
1961-06-01,215.880
1961-07-01,171.600
1961-08-01,209.460
1961-09-01,202.730
1961-10-01,238.630
1961-11-01,211.630
1961-12-01,160.540
1962-01-01,156.260
1962-02-01,235.040
1962-03-01,194.180
1962-04-01,179.580
1962-05-01,209.560
1962-06-01,196.740
1962-07-01,200.260
1962-08-01,194.310
1962-09-01,183.630
1962-10-01,174.990
1962-11-01,209.860
1962-12-01,143.580
